Location: Dal�� Lhota
(48.7500°N, 14.0167°E)
Time: 09:23:55
(UTC+00:00)

Explorer 7 - Pass Details

Date: 03 August 2021
Orbit: 484 x 676 km, 50.3° (Epoch: 21 September)

Event Time Altitude Azimuth Distance (km) Brightness Sun altitude
Rises 08:45:11 0° 288° (WNW) 2,670 9.9 47.1°
Reaches altitude 10° 08:47:25 10° 280° (W) 1,808 9.2 47.4°
Maximum altitude 08:51:18 41° 211° (SSW) 832 8.3 47.9°
Drops below altitude 10° 08:55:24 10° 141° (SE) 1,915 10.5 48.4°
Sets 08:57:50 0° 134° (SE) 2,850 11.1 48.8°
